Powrót do katalogu

ARIANE 5 DEB

SPELTRA

AktywnyHEO
NORAD 25026·DEBRIS·🇫🇷 France

Wystrzelony Oct 30, 1997 z Guiana Space Centre

Loading…

Następne Przeloty (najbliższe 24 godziny)

TLE

ŚwieżeSource: Space-Track

Epoka: Sep 14, 2026, 22:15 UTC

1 25026U 97066D   26257.92737410 -.00000106  00000-0 -82239-5 0  9996
2 25026   7.8187 306.3208 6527760 217.7167  56.1064  3.08322885325229

Śledź ARIANE 5 DEB w czasie rzeczywistym z AllMySat

Download on the App Store